www.pogodaiklimat.ru

Погода и климат >> Архив погоды >> Украина >> Сарата


ПОГОДА в Сарате

  • Прогноз погоды в Сарате
  • Монитор погоды в Сарате

АРХИВ ПОГОДЫ в Сарате

Время (UTC), дата Ветер
(напр.,м/с)
 
Видим.   Явления Облачность Т
(С)
Тd
(С)
f
(%)
Тe
(С)
Тes
(С)
Комфортность P
(гПа)
Po
(гПа)
Тmin
(С)
Tmax
(С)
R
(мм)
R24
(мм)
S
(см)
21 18.06 штиль 0 10 км ясно +19.5 +16.2 81 +21 +21 комфорт 1014.7 1013.0
00 19.06 С 2 4000 м дымка ясно +21.1 +18.8 87 +25 +25 комфорт 1014.2 1012.6
03 19.06 СВ 3 6000 м дымка ясно +20.2 +19.4 95 +24 +24 комфорт 1013.9 1012.2
06 19.06 СВ 3 20 км ясно +27.0 +20.3 67 +33 +40 очень
душно
1013.9 1012.3 +18.5
12 19.06 СЗ 4 20 км гроза без осадков {ливн. осадки} 10/10 600 м
[Cb cap]
+26.2 +18.8 64 +31 +31 очень
душно
1013.0 1011.4
18 19.06 СВ 1 13 км {гроза, ливн. осадки} 3/3 600 м
[Cb calv]
+24.2 +20.5 80 +30 +30 очень
душно
1012.0 1010.4 +31.8 3
21 19.06 С 1 4000 м дымка 5/0
[Ac trans]
+21.0 +20.0 94 +27 +27 душно 1011.9 1010.3
00 20.06 С 1 4000 м дымка 8/8 600 м
[Sc]
+21.6 +19.6 88 +27 +27 душно 1011.9 1010.3
03 20.06 СВ 3 7000 м дымка 8/0
[Ci sp]
+19.9 +18.6 92 +23 +23 комфорт 1011.7 1010.0
06 20.06 СВ 3 20 км 9/0
[Ci sp]
+28.1 +19.6 60 +34 +39 очень
душно
1011.9 1010.3 +19.8
09 20.06 СВ 4 20 км 8/6 600 м
[Cu med, cong Ci sp]
+31.9 +17.0 41 +35 +40 очень
душно
1011.5 1009.9
12 20.06 З 2 20 км гроза без осадков 9/9 600 м
[Cb calv]
+32.1 +17.2 41 +36 +37 очень
душно
1010.5 1009.0
15 20.06 ЮЗ 2 20 км {гроза} 8/4 600 м
[Cu med, cong Ci fib]
+32.1 +16.8 40 +35 +38 очень
душно
1010.5 1008.9
18 20.06 С 1 20 км {гроза} 3/0
[Ci fib]
+27.0 +17.5 56 +31 +31 душно 1011.2 1009.6 +33.6
21 20.06 штиль 0 10 км ясно +21.9 +18.5 81 +27 +27 душно 1011.5 1009.9
00 21.06 штиль 0 4000 м дымка ясно +21.0 +18.6 86 +25 +25 комфорт 1011.5 1009.9
03 21.06 СВ 2 6000 м дымка 9/0
[Ci sp]
+19.0 +18.1 95 +21 +22 комфорт 1012.5 1010.8
06 21.06 ЮВ 2 20 км 8/3 1000 м
[Cu hum Ac trans Ci sp]
+28.1 +19.6 60 +34 +38 очень
душно
1013.1 1011.5 +18.6
09 21.06 Ю 2 20 км 9/6 1000 м
[Cu hum Ci sp]
+32.8 +12.9 30 +33 +40 жарко 1013.0 1011.4
12 21.06 Ю 2 20 км 9/9 600 м
[Cu med, cong]
+33.4 +13.4 30 +34 +36 очень
жарко
1012.8 1011.3
15 21.06 Ю 3 20 км 6/6 1000 м
[Cu hum]
+32.9 +12.0 28 +33 +35 жарко 1012.5 1010.9
18 21.06 штиль 0 20 км 6/0
[Ci sp]
+26.9 +14.7 47 +29 +29 жарко 1012.8 1011.2 +34.0
21 21.06 СВ 2 10 км ясно +21.2 +18.4 84 +25 +25 комфорт 1013.7 1012.1
00 22.06 СВ 2 4000 м дымка ясно +18.9 +17.8 93 +21 +21 комфорт 1013.6 1012.0
03 22.06 СВ 1 4500 м дымка ясно +18.4 +17.9 97 +20 +21 1013.8 1012.1
06 22.06 СВ 2 20 км 8/8 600 м
[Cb calv]
+27.1 +19.5 63 +33 +34 очень
душно
1014.3 1012.7
09 22.06 Ю 3 20 км 3/3 600 м
[Cb cap]
+35.0 +12.6 26 +35 +46 очень
жарко
1013.9 1012.3
12 22.06 Ю 4 20 км 6/6 600 м
[Cb calv]
+34.3 +14.3 30 +35 +40 очень
жарко
1013.7 1012.2
15 22.06 ЮЗ 3 20 км 8/8 600 м
[Cb cap]
+32.1 +15.6 37 +35 +35 очень
душно
1013.4 1011.8
18 22.06 штиль 0 20 км 9/9 600 м
[Sc]
+27.3 +16.5 52 +31 +31 душно 1014.5 1012.9 +35.5
21 22.06 С 1 10 км ясно +22.3 +17.9 76 +27 +27 душно 1014.5 1012.9
00 23.06 штиль 0 4000 м дымка 4/0
[Ci sp]
+18.5 +17.2 92 +19 +19 1014.3 1012.7
06 23.06 З 1 16 км 4/0
[Ac trans]
+26.7 +21.9 75 +34 +42 очень
душно
1014.9 1013.3 +18.3
12 23.06 ЮЗ 3 20 км {ливн. осадки} 9/9 600 м
[Cb cap]
+29.5 +17.3 48 +34 +35 очень
душно
1013.6 1012.1
18 23.06 штиль 0 20 км 9/4 600 м
[Cb calv Ci sp]
+24.9 +16.4 59 +28 +28 жарко 1013.4 1011.8 +33.1 0.5
00 24.06 штиль 0 4000 м дымка ясно +18.8 +17.0 89 +20 +20 1014.1 1012.5
06 24.06 В 2 20 км 8/0
[Cc]
+28.3 +19.5 59 +34 +41 очень
душно
1015.0 1013.4 +17.4
12 24.06 В 8 20 км 9/9 600 м
[Cb calv]
+30.8 +15.6 40 +33 +34 душно 1015.6 1014.1
18 24.06 СВ 2 20 км {ливн. осадки} 9/9 600 м
[Sc]
+26.6 +15.9 52 +30 +30 душно 1016.7 1015.1 +34.1 0.0
06 25.06 СВ 5 20 км 3/0
[Ci fib]
+28.1 +19.6 60 +34 +38 очень
душно
1018.4 1016.8 +21.0
12 25.06 В 6 20 км гроза без осадков 5/5 600 м
[Cb cap]
+31.8 +16.2 39 +35 +38 очень
душно
1018.4 1016.9

 

Местоположение метеостанции Сарата (Одесская область, Украина): широта 46.02 долгота 29.67 высота над уровнем моря 14 м.

В архиве по умолчанию представлена погода в Сарате за последнюю неделю. Архивные данные за месяц целиком и за предыдущие месяцы, начиная с января 2011 года, Вы можете получить, выбрав интересующий диапазон дат из раскрывающегося списка и нажав кнопку "Ввод!".


*Определитесь, кто Вы:
робот инопланетянин человек

Внимание! Время в таблицах - всемирное. Для получения местного времени необходимо прибавить поправку, которая равна 2 ч.

Смотрите также архив погоды в соседних городах и на ближайших метеорологических станциях:

Погода в Вилково (Одесская область, Украина) (23 км)
Погода в Белгород-Днестровском (Одесская область, Украина) (57 км)
Погода в Штефан Водэ (Молдова) (58 км)
Погода в Чадыр-Лунге (Молдова) (60 км)
Погода в Комрате (Молдова) (86 км)
Погода в Ильичевске (Одесская область, Украина) (90 км)
Погода в Болграде (Одесская область, Украина) (90 км)
Погода в Заставе (Одесская область, Украина) (90 км)
Погода в Сулине (Румыния) (95 км)
Погода в Одессе (Одесская область, Украина) (96 км)

Пояснения к столбцам:

Ветер - указаны скорость ветра в м/с - средняя за 10 мин, порывы в срок и между сроками (в фигурных скобках) и направление, откуда дует ветер: С - северный, СВ - северо-восточный, В - восточный, ЮВ - юго-восточный, Ю - южный, ЮЗ - юго-западный, З - западный, СЗ - северо-западный.
Видимость - горизонтальная дальность видимости в метрах или километрах. При видимости от 1 до 10 км при отсутствии осадков обычно наблюдается дымка, при ухудшении видимости до 1 км и менее - туман. В сухую погоду видимость может ухудшаться дымом, пылью или мглою.
Явления - указаны атмосферные явления, наблюдавшиеся в срок или в последний час перед сроком; фигурными скобками обозначены явления, наблюдавшиеся между сроками (за 1-3 часа до срока); квадратными скобками обозначены град или гололедные отложения с указанием их диаметра в мм.
Облачность - указаны через наклонную черту общая и нижняя облачность в баллах и высота нижней границы облаков в метрах; квадратными скобками обозначены формы облаков: Ci - перистые, Cs - перисто-слоистые, Cc - перисто-кучевые, Ac - высококучевые, As - высокослоистые, Sc - слоисто-кучевые, Ns - слоисто-дождевые, Cu - кучевые, Cb - кучево-дождевые. Подробнее классификацию облаков см. в Атласе облаков (PDF).
T - Температура воздуха - температура, измеренная на высоте 2 м над землей.
Td - Температура точки росы - температура, при понижении до которой содержащийся в воздухе водяной пар достигнет насыщения.
f - Относительная влажность воздуха - влажноcть воздуха, измеренная на высоте 2 м над землей.
Te - Эффективная температура - температура, которую ощущает одетый по сезону человек в тени. Характеристика душности погоды. При расчете учитывается влияние влажности воздуха и скорости ветра на теплоощущения человека.
Tes - Эффективная температура на солнце - температура, которую ощущает человек, с поправкой на солнечный нагрев. Характеристика знойности погоды. Зависит от высоты солнца над горизонтом, облачности и скорости ветра. Ночью, в пасмурную погоду, а также при ветре 12 м/с и более поправка равна нулю.
P - Атмосферное давление - приведенное к уровню моря атмосферное давление.
Po - Атмосферное давление - измеренное на уровне метеостанции атмосферное давление.
Tmin - Минимальная температура - минимум температуры воздуха на высоте 2 м над землей.
Tmax - Максимальная температура - максимум температуры воздуха на высоте 2 м над землей.
R - Количество осадков - Количество выпавших осадков за период времени, мм. При наведении курсора мыши на число - период времени, за который выпало указанное количество осадков.
R24 - Количество осадков - Количество выпавших осадков за 24 часа, мм.
S - Снежный покров - Высота снежного покрова, см. При наведении курсора мыши на число - состояние снежного покрова и степень покрытия местности в баллах.